Vorticity
-2 10 -1 2 10 6 0 6 -1 5 8 6 5 5 1 5 -5 18 21 6 7 8 -0 6 0 7 -2 5 6 12 9 3
7 -3 12 7 2 15 5 7 7 3 3 9 3 -5 -2 22 5 11 13 5 6 9 10 -4 -1 1 3 2 16 6 4 4
32 14 -3 6 10 4 7 5 9 11 7 2 9 15 -3 5 15 15 20 -1 2 7 7 7 2 5 3 14 2 4 6 4
18 28 -2 25 6 6 2 -5 8 -1 4 -33 13 8 -1 11 11 6 6 34 5 7 7 -1 5 4 14 5 4 3 3 6
0 2 0 8 11 21 2 -19 45 -37 51 54 -15 -10 24 14 19 7 21 1 2 15 -2 5 6 9 6 4 3 5 3 4
2 3 7 -2 -3 25 -6 -12 2 -3 -4 5 10 -3 16 35 9 41 22 9 7 -2 4 4 13 9 3 3 3 4 2 4
0 6 2 -0 4 1 -1 5 7 5 -6 -4 5 9 5 23 36 27 2 1 -2 3 5 12 6 4 4 2 2 3 6 -0
5 5 5 0 9 9 -3 -0 21 8 3 7 -2 4 29 17 42 -4 -2 3 4 6 4 8 4 3 1 2 2 3 3 4
6 6 11 13 -6 -13 29 -20 32 -11 7 21 48 22 35 17 -5 6 3 5 3 11 6 4 3 0 2 2 2 3 4 4
11 6 7 19 31 17 9 45 -16 15 14 19 29 15 6 3 2 3 -3 3 15 5 4 3 0 2 1 2 4 4 4 7
18 8 19 9 4 13 32 4 14 43 47 34 3 12 -1 -2 -1 4 4 12 3 3 3 1 2 2 2 4 4 5 8 5
8 11 3 11 28 32 32 34 33 2 4 4 8 0 1 3 6 3 10 3 3 2 2 2 2 2 3 4 8 9 4 4
35 25 21 11 31 34 13 5 -1 2 4 4 -1 3 2 3 6 9 4 2 2 1 2 2 3 5 4 10 4 -5 10 11
17 16 10 6 3 1 1 2 -0 2 2 4 2 0 8 17 6 3 3 2 2 2 2 2 -2 8 11 10 9 10 -10 -1
4 4 6 6 4 4 5 5 8 5 8 5 5 6 6 5 0 2 2 2 2 5 5 4 1 6 11 4 5 4 10 11
4 4 4 5 5 5 5 5 8 8 6 7 7 9 9 7 5 2 0 3 -5 17 13 -3 7 12 8 -3 8 1 -6 2
5 6 6 7 7 7 8 7 7 7 6 8 13 6 4 8 -18 23 34 -5 -12 -2 -5 5 -3 8 8 4 -2 -0 -9 -9
7 5 6 5 6 7 8 5 8 13 13 12 7 1 5 -0 1 3 25 45 16 6 8 13 0 -5 -0 4 6 1 -7 -11
8 8 7 4 6 10 10 9 5 15 14 -3 17 6 7 14 9 3 2 4 5 2 14 16 13 1 5 13 11 2 5 -2
5 7 8 10 11 8 9 -3 14 8 20 13 10 5 5 1 -0 -2 4 4 5 15 7 6 4 5 2 9 15 4 -5 -12
Height
5763 5769 5774 5779 5784 5787 5790 5794 5795 5797 5798 5800 5802 5805 5806 5806 5807 5806 5805 5808 5811 5814 5816 5818 5818 5820 5820 5819 5818 5818 5818 5819
5748 5761 5766 5773 5779 5782 5787 5789 5790 5791 5793 5796 5799 5801 5801 5801 5801 5801 5803 5804 5805 5810 5813 5814 5816 5816 5816 5816 5816 5816 5818 5814
5750 5754 5752 5771 5777 5778 5782 5783 5785 5787 5789 5792 5793 5796 5796 5796 5797 5798 5798 5797 5801 5808 5810 5812 5813 5813 5813 5813 5813 5814 5814 5813
5749 5757 5757 5767 5771 5774 5776 5779 5782 5785 5785 5785 5788 5788 5789 5790 5791 5792 5793 5796 5802 5806 5808 5809 5810 5811 5810 5810 5810 5811 5812 5809
5753 5758 5760 5760 5764 5768 5770 5773 5771 5778 5778 5778 5783 5783 5783 5785 5786 5787 5791 5795 5800 5803 5805 5806 5807 5807 5808 5808 5808 5808 5809 5806
5751 5754 5758 5761 5762 5762 5765 5768 5772 5773 5775 5778 5778 5777 5776 5779 5780 5785 5789 5793 5798 5800 5801 5801 5803 5805 5805 5805 5804 5804 5804 5800
5750 5751 5753 5756 5758 5760 5763 5766 5768 5769 5771 5773 5772 5772 5773 5776 5778 5782 5787 5792 5794 5796 5796 5797 5800 5801 5801 5802 5800 5799 5797 5796
5747 5750 5751 5753 5754 5756 5760 5761 5762 5765 5766 5766 5768 5769 5771 5772 5775 5779 5786 5788 5791 5792 5794 5794 5797 5797 5797 5796 5794 5793 5792 5792
5745 5747 5750 5751 5751 5753 5755 5756 5758 5761 5761 5762 5764 5765 5767 5771 5776 5779 5784 5785 5788 5789 5790 5792 5793 5793 5792 5791 5789 5787 5786 5785
5740 5741 5743 5745 5748 5748 5751 5752 5754 5756 5756 5760 5762 5764 5767 5770 5775 5778 5780 5782 5784 5786 5787 5787 5787 5788 5788 5786 5784 5782 5780 5778
5737 5740 5740 5741 5744 5745 5746 5748 5750 5752 5756 5760 5762 5765 5767 5771 5774 5775 5777 5780 5781 5782 5783 5782 5782 5782 5782 5780 5777 5775 5773 5771
5736 5737 5739 5741 5741 5742 5743 5744 5750 5754 5758 5760 5762 5766 5768 5769 5772 5773 5775 5776 5776 5778 5778 5777 5777 5775 5774 5774 5772 5769 5766 5764
5736 5737 5740 5741 5742 5744 5745 5749 5752 5755 5758 5760 5764 5766 5766 5768 5769 5770 5771 5772 5772 5773 5772 5771 5771 5768 5767 5764 5763 5761 5758 5755
5738 5739 5741 5744 5746 5746 5748 5752 5755 5756 5758 5760 5762 5764 5765 5764 5765 5766 5768 5768 5768 5767 5766 5765 5765 5762 5758 5755 5753 5752 5750 5747
5740 5741 5743 5744 5745 5747 5749 5752 5755 5757 5758 5759 5761 5762 5762 5762 5763 5763 5763 5765 5764 5763 5761 5760 5758 5755 5750 5748 5745 5742 5739 5733
5741 5741 5742 5745 5746 5748 5750 5752 5753 5755 5756 5756 5756 5757 5757 5758 5758 5758 5759 5761 5759 5756 5755 5752 5748 5746 5744 5741 5738 5734 5729 5726
5741 5740 5742 5744 5745 5747 5749 5749 5750 5751 5752 5752 5753 5753 5753 5753 5753 5751 5751 5751 5751 5749 5747 5745 5742 5738 5735 5730 5726 5723 5719 5714
5740 5741 5743 5744 5744 5745 5745 5745 5746 5747 5748 5749 5750 5750 5749 5748 5747 5747 5745 5745 5745 5743 5738 5736 5732 5728 5725 5720 5715 5710 5705 5699
5739 5740 5741 5743 5743 5742 5742 5742 5742 5743 5744 5745 5746 5746 5745 5743 5741 5740 5737 5734 5734 5732 5727 5725 5722 5718 5713 5708 5704 5699 5694 5688
5735 5736 5737 5737 5739 5738 5738 5739 5740 5740 5739 5739 5740 5739 5739 5737 5735 5732 5729 5726 5725 5720 5718 5715 5712 5707 5702 5696 5693 5687 5681 5674